Location: Bergnerzell
(49.1816°N, 10.2565°E)
Time: 22:45:46
(UTC+00:00)

Cosmos 2181 Rocket - Pass Details

Date: 23 May 2024
Orbit: 951 x 1014 km, 82.9° (Epoch: 14 June)

Event Time Altitude Azimuth Distance (km) Brightness Sun altitude
Rises 01:48:31 0° 350° (N) 3,746 7.8 -12.3°
Reaches altitude 10° 01:51:04 10° 350° (N) 2,784 7.0 -12.1°
Maximum altitude 01:57:29 86° 264° (W) 1,000 4.0 -11.5°
Drops below altitude 10° 02:03:45 10° 175° (S) 2,722 5.9 -10.8°
Enters shadow 02:05:55 - 175° (S) 3,543 6.5 -10.6°
